Flag for Belarus Weather past 2 weeks in Barysaw, Belarus

Now
55 °F

Overcast.


Feels Like: 54 °F
Forecast: 50 / 67 °F
Wind: 6 mph from Northeast

Location: Minsk

Current Time: Sep 2, 2014 at 10:38:12 AM

Latest Report: Sep 2, 2014 at 10:00 AM


Visibility: N/A

Pressure: 30.12 "Hg

Humidity: 82%

Dew point: 50 °F

Location of BarysawLocation

Historic Weather in Barysaw — Graph

°F

Barysaw temperature yesterday

Maximum temperature yesterday: 61 °F (at 6:00 PM)
Minimum temperature yesterday: 48 °F (at 11:30 PM)
Average temperature yesterday: 55 °F

Past Weeks' High & Low Weather Summary

 TemperatureHumidityPressure
High75 °F (Aug 19, 4:00 PM)100% (Aug 20, 3:30 AM)30.12 "Hg (Aug 20, 3:30 AM)
Low43 °F (Aug 23, 6:00 AM)38% (Aug 19, 2:00 PM)29.45 "Hg (Aug 25, 7:00 AM)
Average57 °F80%29.89 "Hg
* Reported Aug 18 9:00 AM — Sep 2 9:00 AM, Barysaw, Weather by CustomWeather, © 2014

Note: Actual official high and low records may vary slightly from our data, if they occured in-between our weather recording intervals... More about our weather records

Advertising

Barysaw weather history for previous 24 hours

 ConditionsComfort  
Time TempWeatherWind HumidityBarometerVisibility
9:00 AM
Sep 2
54 °FMostly cloudy.10 mph88%30.12 "HgN/A
8:30 AM54 °FMostly cloudy.8 mph88%30.12 "HgN/A
8:00 AM54 °FBroken clouds.6 mph88%30.09 "HgN/A
7:30 AM52 °FPartly sunny.6 mph94%30.09 "HgN/A
7:00 AM52 °FMostly cloudy.3 mph94%30.09 "HgN/A
6:30 AM52 °FMostly cloudy.3 mph94%30.09 "HgN/A
5:30 AM52 °FMostly cloudy.3 mph94%30.09 "HgN/A
5:00 AM52 °FLow clouds.3 mph94%30.09 "HgN/A
4:30 AM52 °FLow clouds.3 mph94%30.09 "HgN/A
4:00 AM52 °FLow clouds.8 mph94%30.09 "HgN/A
3:30 AM52 °FLow clouds.8 mph94%30.09 "HgN/A
3:00 AM52 °FLow clouds.6 mph94%30.09 "HgN/A
2:30 AM52 °FLow clouds.8 mph94%30.09 "HgN/A
2:00 AM52 °FLow clouds.8 mph94%30.09 "HgN/A
1:30 AM52 °FLow clouds.8 mph94%30.09 "HgN/A
1:00 AM48 °FFog.No wind100%30.09 "Hg3 mi
12:30 AM46 °FFog.1 mph100%30.09 "Hg1 mi
12:00 AM46 °FFog.No wind100%30.07 "Hg0 mi
11:30 PM
Sep 1
48 °FFog.No wind94%30.07 "Hg1 mi
11:00 PM50 °FPassing clouds.No wind94%30.07 "Hg6 mi
10:30 PM52 °FPassing clouds.1 mph94%30.07 "HgN/A
10:00 PM50 °FPassing clouds.3 mph100%30.07 "HgN/A
9:30 PM54 °FPassing clouds.3 mph94%30.07 "HgN/A
9:00 PM55 °FPartly sunny.8 mph88%30.07 "HgN/A
8:30 PM55 °FPartly sunny.8 mph88%30.07 "HgN/A
8:00 PM57 °FPartly sunny.1 mph82%30.07 "HgN/A
7:30 PM59 °FPartly sunny.3 mph77%30.04 "HgN/A
7:00 PM59 °FPartly sunny.6 mph77%30.04 "HgN/A
6:30 PM59 °FPartly sunny.8 mph77%30.04 "HgN/A
6:00 PM61 °FPartly sunny.6 mph68%30.04 "HgN/A
5:30 PM59 °FPartly sunny.6 mph72%30.04 "HgN/A
5:00 PM59 °FPartly sunny.3 mph72%30.04 "HgN/A
4:30 PM59 °FPartly sunny.6 mph77%30.07 "HgN/A
4:00 PM59 °FPartly sunny.6 mph72%30.07 "HgN/A
3:30 PM59 °FPartly sunny.8 mph77%30.04 "HgN/A
3:00 PM59 °FPartly sunny.8 mph77%30.04 "HgN/A
2:30 PM59 °FPartly sunny.6 mph77%30.04 "HgN/A
2:00 PM59 °FPartly sunny.6 mph77%30.04 "HgN/A
1:30 PM59 °FPartly sunny.6 mph77%30.04 "HgN/A
1:00 PM59 °FPartly sunny.6 mph77%30.04 "HgN/A
12:30 PM59 °FBroken clouds.3 mph72%30.04 "HgN/A
12:00 PM59 °FBroken clouds.3 mph72%30.04 "HgN/A
11:30 AM57 °FBroken clouds.6 mph82%30.04 "HgN/A
11:00 AM55 °FBroken clouds.3 mph88%30.04 "HgN/A
10:30 AM54 °FLow clouds.6 mph94%30.04 "Hg4 mi
10:00 AM54 °FFog.3 mph94%30.04 "Hg3 mi
Weather by CustomWeather, © 2014

See weather overviewHow to use our weather pages